Location: Newark
(51.7378°N, 19.8125°E)
Time: 07:36:46
(UTC+00:00)

Envisat - Pass Details

Date: 08 December 2019
Orbit: 764 x 766 km, 98.1° (Epoch: 28 January)

Event Time Altitude Azimuth Distance (km) Brightness Sun altitude
Rises 15:32:23 0° 138° (SE) 3,225 6.1 -8.9°
Reaches altitude 10° 15:34:49 10° 131° (SE) 2,303 5.2 -9.3°
Maximum altitude 15:39:28 38° 64° (ENE) 1,168 3.5 -9.9°
Drops below altitude 10° 15:44:09 10° 358° (N) 2,318 5.3 -10.6°
Sets 15:46:35 0° 351° (N) 3,249 6.1 -10.9°
